When you browse on this site, cookies collect data to enhance your experience and personalize the content and advertising you see.
Visit our Privacy Policy to learn more. By continuing to use the site, you agree to this use of cookies and data.
  • In Hungary
  • List of Countries
  • For 7 days
  • Water Temperature
  • Satellite Maps
  • Weather Map
  • News
  • Weather Widgets
  • user-avatar
    Login

    Hourly Weather Kavali

    Today, 21 April, Sunday

    Time Temperature Precipitation Wind Pressure Humidity
    00:00 +33°C° 0 mm 5 mps 753 mmHg 76%
    01:00 +32°C° 0 mm 5 mps 753 mmHg 77%
    02:00 +32°C° 0 mm 5 mps 753 mmHg 77%
    03:00 +32°C° 0 mm 5 mps 753 mmHg 77%
    04:00 +32°C° 0 mm 5 mps 753 mmHg 77%
    05:00 +32°C° 0 mm 4 mps 753 mmHg 77%
    06:00 +33°C° 0 mm 4 mps 753 mmHg 69%
    07:00 +34°C° 0 mm 4 mps 754 mmHg 61%
    08:00 +36°C° 0 mm 4 mps 754 mmHg 54%
    09:00 +37°C° 0 mm 4 mps 754 mmHg 47%
    10:00 +39°C° 0 mm 3 mps 754 mmHg 40%
    11:00 +41°C° 0 mm 2 mps 754 mmHg 33%
    12:00 +42°C° 0 mm 3 mps 753 mmHg 34%
    13:00 +42°C° 0 mm 5 mps 752 mmHg 35%
    14:00 +44°C° 0 mm 6 mps 752 mmHg 36%
    15:00 +41°C° 0 mm 6 mps 751 mmHg 43%
    16:00 +39°C° 0 mm 7 mps 751 mmHg 51%
    17:00 +36°C° 0 mm 7 mps 751 mmHg 59%
    18:00 +35°C° 0 mm 6 mps 751 mmHg 61%
    19:00 +35°C° 0 mm 6 mps 751 mmHg 64%
    20:00 +34°C° 0 mm 5 mps 752 mmHg 67%
    21:00 +34°C° 0 mm 6 mps 752 mmHg 66%
    22:00 +34°C° 0 mm 6 mps 753 mmHg 66%
    23:00 +34°C° 0 mm 7 mps 753 mmHg 65%

    Tomorrow, 22 April, Monday

    Time Temperature Precipitation Wind Pressure Humidity
    00:00 +34°C° 0 mm 6 mps 753 mmHg 66%
    01:00 +33°C° 0 mm 6 mps 752 mmHg 67%
    02:00 +33°C° 0 mm 6 mps 752 mmHg 68%
    03:00 +33°C° 0 mm 5 mps 752 mmHg 70%
    04:00 +33°C° 0 mm 5 mps 752 mmHg 72%
    05:00 +32°C° 0 mm 4 mps 752 mmHg 74%
    06:00 +33°C° 1.1 mm 4 mps 753 mmHg 69%
    07:00 +34°C° 1.1 mm 4 mps 754 mmHg 64%
    08:00 +35°C° 1.1 mm 4 mps 754 mmHg 59%
    09:00 +37°C° 0 mm 4 mps 754 mmHg 53%
    10:00 +39°C° 0 mm 5 mps 754 mmHg 48%
    11:00 +41°C° 0 mm 5 mps 754 mmHg 42%
    12:00 +41°C° 0 mm 5 mps 753 mmHg 43%
    13:00 +41°C° 0 mm 6 mps 753 mmHg 43%
    14:00 +41°C° 0 mm 6 mps 752 mmHg 44%
    15:00 +40°C° 0 mm 6 mps 752 mmHg 49%
    16:00 +38°C° 0 mm 6 mps 751 mmHg 54%
    17:00 +36°C° 0 mm 5 mps 751 mmHg 59%
    18:00 +35°C° 0 mm 6 mps 752 mmHg 64%
    19:00 +34°C° 0 mm 6 mps 753 mmHg 68%
    20:00 +33°C° 0 mm 6 mps 753 mmHg 73%
    21:00 +33°C° 0 mm 5 mps 753 mmHg 73%
    22:00 +33°C° 0 mm 5 mps 754 mmHg 74%
    23:00 +33°C° 0 mm 5 mps 754 mmHg 74%

    Day after tomorrow, 23 April, Tuesday

    Time Temperature Precipitation Wind Pressure Humidity
    00:00 +33°C° 0 mm 4 mps 754 mmHg 74%
    01:00 +33°C° 0 mm 4 mps 754 mmHg 74%
    02:00 +33°C° 0 mm 3 mps 753 mmHg 74%
    03:00 +33°C° 0 mm 3 mps 753 mmHg 75%
    04:00 +31°C° 0 mm 2 mps 753 mmHg 75%
    05:00 +31°C° 0 mm 2 mps 753 mmHg 76%
    06:00 +33°C° 0 mm 3 mps 754 mmHg 70%
    07:00 +34°C° 0 mm 4 mps 754 mmHg 65%
    08:00 +35°C° 0 mm 5 mps 755 mmHg 59%
    09:00 +37°C° 0 mm 5 mps 755 mmHg 53%
    10:00 +39°C° 0 mm 5 mps 755 mmHg 46%
    11:00 +41°C° 0 mm 5 mps 755 mmHg 39%
    12:00 +41°C° 0 mm 5 mps 754 mmHg 38%
    13:00 +41°C° 0 mm 6 mps 753 mmHg 37%
    14:00 +42°C° 0 mm 6 mps 752 mmHg 36%
    15:00 +40°C° 0 mm 6 mps 752 mmHg 41%
    16:00 +39°C° 0 mm 6 mps 752 mmHg 45%
    17:00 +36°C° 0 mm 6 mps 752 mmHg 50%
    18:00 +35°C° 0 mm 6 mps 753 mmHg 55%
    19:00 +34°C° 0 mm 6 mps 754 mmHg 60%
    20:00 +33°C° 0 mm 5 mps 755 mmHg 66%
    21:00 +33°C° 0 mm 5 mps 755 mmHg 67%
    22:00 +33°C° 0 mm 5 mps 755 mmHg 69%
    23:00 +32°C° 0 mm 4 mps 755 mmHg 70%

    24 April, Wednesday

    Time Temperature Precipitation Wind Pressure Humidity
    00:00 +32°C° 0 mm 4 mps 755 mmHg 72%
    01:00 +32°C° 0 mm 4 mps 754 mmHg 73%
    02:00 +30°C° 0 mm 4 mps 754 mmHg 75%
    03:00 +30°C° 0 mm 4 mps 754 mmHg 76%
    04:00 +30°C° 0 mm 4 mps 754 mmHg 77%
    05:00 +30°C° 0 mm 4 mps 754 mmHg 78%
    06:00 +32°C° 0 mm 4 mps 755 mmHg 70%
    07:00 +33°C° 0 mm 4 mps 756 mmHg 63%
    08:00 +35°C° 0 mm 4 mps 756 mmHg 55%
    09:00 +36°C° 0 mm 4 mps 756 mmHg 47%
    10:00 +39°C° 0 mm 5 mps 756 mmHg 39%
    11:00 +41°C° 0 mm 5 mps 756 mmHg 32%
    12:00 +41°C° 0 mm 5 mps 755 mmHg 33%
    13:00 +41°C° 0 mm 6 mps 754 mmHg 34%
    14:00 +41°C° 0 mm 7 mps 753 mmHg 36%
    15:00 +39°C° 0 mm 7 mps 753 mmHg 40%
    16:00 +38°C° 0 mm 6 mps 753 mmHg 45%
    17:00 +36°C° 0 mm 6 mps 753 mmHg 49%
    18:00 +35°C° 0 mm 6 mps 753 mmHg 55%
    19:00 +34°C° 0 mm 5 mps 754 mmHg 62%
    20:00 +33°C° 0 mm 4 mps 755 mmHg 68%
    21:00 +32°C° 0 mm 5 mps 755 mmHg 70%
    22:00 +32°C° 0 mm 5 mps 755 mmHg 72%
    23:00 +32°C° 0 mm 5 mps 755 mmHg 74%

    25 April, Thursday

    Time Temperature Precipitation Wind Pressure Humidity
    00:00 +30°C° 0 mm 4 mps 755 mmHg 76%
    01:00 +30°C° 0 mm 4 mps 754 mmHg 77%
    02:00 +30°C° 0 mm 3 mps 754 mmHg 79%
    03:00 +30°C° 0 mm 3 mps 754 mmHg 80%
    04:00 +29°C° 0 mm 3 mps 754 mmHg 82%
    05:00 +29°C° 0 mm 3 mps 754 mmHg 83%
    06:00 +30°C° 0 mm 4 mps 755 mmHg 75%
    07:00 +33°C° 0 mm 5 mps 756 mmHg 67%
    08:00 +34°C° 0 mm 6 mps 756 mmHg 59%
    09:00 +36°C° 0 mm 6 mps 756 mmHg 51%
    10:00 +39°C° 0 mm 6 mps 756 mmHg 42%
    11:00 +41°C° 0 mm 5 mps 755 mmHg 34%
    12:00 +41°C° 0 mm 6 mps 754 mmHg 34%
    13:00 +42°C° 0 mm 6 mps 754 mmHg 33%
    14:00 +42°C° 0 mm 6 mps 753 mmHg 33%
    15:00 +41°C° 0 mm 6 mps 753 mmHg 40%
    16:00 +39°C° 0 mm 6 mps 753 mmHg 48%
    17:00 +36°C° 0 mm 7 mps 753 mmHg 55%
    18:00 +35°C° 0 mm 6 mps 753 mmHg 60%
    19:00 +34°C° 0 mm 6 mps 754 mmHg 65%
    20:00 +33°C° 0 mm 5 mps 755 mmHg 70%
    21:00 +32°C° 0 mm 5 mps 755 mmHg 72%
    22:00 +32°C° 0 mm 5 mps 755 mmHg 73%
    23:00 +32°C° 0 mm 4 mps 755 mmHg 75%

    26 April, Friday

    Time Temperature Precipitation Wind Pressure Humidity
    00:00 +30°C° 0 mm 4 mps 754 mmHg 76%
    01:00 +30°C° 0 mm 5 mps 753 mmHg 77%
    02:00 +30°C° 0 mm 5 mps 753 mmHg 78%
    03:00 +30°C° 0 mm 5 mps 753 mmHg 78%
    04:00 +30°C° 0 mm 6 mps 753 mmHg 78%
    05:00 +29°C° 0 mm 6 mps 753 mmHg 78%
    06:00 +32°C° 0 mm 6 mps 754 mmHg 70%
    07:00 +33°C° 0 mm 6 mps 754 mmHg 62%
    08:00 +35°C° 0 mm 6 mps 755 mmHg 54%
    09:00 +38°C° 0 mm 6 mps 754 mmHg 45%
    10:00 +41°C° 0 mm 6 mps 754 mmHg 35%
    11:00 +43°C° 0 mm 5 mps 754 mmHg 26%
    12:00 +45°C° 0 mm 6 mps 753 mmHg 26%
    13:00 +45°C° 0 mm 6 mps 752 mmHg 26%
    14:00 +45°C° 0 mm 6 mps 752 mmHg 26%
    15:00 +42°C° 0 mm 6 mps 752 mmHg 34%
    16:00 +41°C° 0 mm 7 mps 752 mmHg 42%
    17:00 +39°C° 0 mm 7 mps 752 mmHg 50%
    18:00 +36°C° 0 mm 7 mps 752 mmHg 58%
    19:00 +35°C° 0 mm 6 mps 753 mmHg 65%
    20:00 +33°C° 0 mm 6 mps 754 mmHg 73%
    21:00 +33°C° 0 mm 6 mps 754 mmHg 72%
    22:00 +33°C° 0 mm 6 mps 754 mmHg 72%
    23:00 +33°C° 0 mm 6 mps 754 mmHg 71%
    Show more